Regional Weather Roundup
Issued by NWS

Home | Current Version | Previous Version | Graphics & Text | Print | Product List | Glossary On
Versions: 1 2 3 4 5 6 7 8 9 10 11 12 13 14 15 16 17 18 19 20 21 22 23 24 25 26 27 28 29 30 31 32 33 34 35 36 37 38 39 40 41 42 43 44 45 46 47 48 49 50
000
ASUS45 KCYS 030210
RWRWY

WYOMING REGIONAL WEATHER ROUNDUP
NATIONAL WEATHER SERVICE CHEYENNE WY
800 PM MDT TUE JUN 02 2015

NOTE:  "FAIR" INDICATES FEW OR NO CLOUDS BELOW 12,000 FEET
WITH NO SIGNIFICANT WEATHER AND/OR OBSTRUCTIONS TO VISIBILITY.

WYZ001-030300-
YELLOWSTONE NATIONAL PARK

CITY           SKY/WX    TMP DP  RH WIND       PRES   REMARKS
LK YELLOWSTONE   N/A     54  34  46 VRB6      30.11R
W YELLOWSTONE  NOT AVBL

$$
WYZ002>013-054>058-071-098>099-030300-
NORTHERN WYOMING

CITY           SKY/WX    TMP DP  RH WIND       PRES   REMARKS
JACKSON        PTCLDY    61  37  41 SW8         N/A
CODY           MOCLDY    64  48  55 E6        29.93R
GREYBULL       FAIR      66  52  60 E3        29.85R
WORLAND        FAIR      63  50  62 NE6       29.87S
SHERIDAN       FAIR      56  50  80 S3        29.92F
BUFFALO        FAIR      54  47  77 NW13      29.98R
GILLETTE       MOCLDY    51  47  86 N10G23    29.97R
HULETT         CLOUDY    64  52  63 NE14G23   29.88S
NEWCASTLE      FAIR      68  43  40 MISG      29.84F

$$
WYZ014>020-022>026-101>103-030300-
CENTRAL WYOMING

CITY           SKY/WX    TMP DP  RH WIND       PRES   REMARKS
BIG PINEY      FAIR      63  40  42 W12       30.07R
PINEDALE       FAIR      61  39  44 W12       30.07R
DUBOIS         FAIR      59  34  38 NW14G21   30.03R
LANDER         FAIR      69  44  40 CALM      29.92R
RIVERTON       FAIR      67  42  40 N6        29.93R
CASPER         FAIR      66  45  46 N13       29.90R
DOUGLAS        FAIR      68  52  56 MISG      29.87S

$$
WYZ021-027>030-104>119-030300-
SOUTHERN WYOMING

CITY           SKY/WX    TMP DP  RH WIND       PRES   REMARKS
EVANSTON       FAIR      63  35  35 W15       30.07S
KEMMERER       FAIR      61  32  33 W14       30.09R
FORT BRIDGER   CLEAR     66  32  28 NW17      30.09R
ROCK SPRINGS   FAIR      68  30  24 NW14      30.03R
DIXON          FAIR      70  39  31 CALM      30.03S
RAWLINS        FAIR      69  29  22 W12       30.02R
SARATOGA       FAIR      68  32  26 SW7       30.05S
LARAMIE        FAIR      63  34  33 W6        30.04R HAZE
CHEYENNE       FAIR      73  51  46 N6        29.96R
TORRINGTON     FAIR      69  49  48 CALM      29.84R
PINE BLUFFS    FAIR      72  55  56 N14G20    29.89R

$$



USA.gov is the U.S. government's official web portal to all federal, state and local government web resources and services.